Погода в Модине

Россия / Саратовская область     51°10′24″N   49°23′57″E
темп.,
°C
ветер,
м/с
пор.,
м/с
влажн.,
%
обл.,
%
осадки,
мм/ч
давл.,
гПа
погр.,
м
1 марта, пн
пн101:00−17сз459773 0.0 101684
04:00−18сз449754 0.0 101864
07:00−17сз489889 0.0 1020140
10:00−16ссз479578 0.1 1022235
13:00−14сз469272 0.0 1023342
16:00−13сз479272 0.0 1023350
19:00−16з349746 0.0 102427
22:00−17зюз449723 0.0 102448
2 марта, вт
вт201:00−17зюз479731 0.0 102393
04:00−16зюз589733 0.0 1022128
07:00−13юз6119599 0.0 1019241
10:00−9юз81594100 0.0 1017361
13:00−4юз101694100 0.3 1014658
16:00−2зюз101695100 1.7 1011817
19:00−2зюз101695100 1.5 1008751
22:00−1зюз81496100 2.8 1007622
3 марта, ср
ср301:00−1зюз61197100 0.9 1005494
04:00−1зюз5997100 1.4 1005385
07:00−2ссз3598100 0.5 1004257
10:00−5зсз359598 0.6 1005131
13:00−4зсз469324 0.0 1005299
16:00−4зсз589353 0.0 1006446
19:00−5зсз51196100 0.2 1008410
22:00−7сз6129499 0.4 1010392
4 марта, чт
чт401:00−10зсз5119583 0.0 1011258
04:00−12зсз5109458 0.0 1013161
07:00−13з58950 0.0 1014126
10:00−9зюз6129526 0.0 1015289
13:00−5зюз71294100 0.0 1014443
16:00−3зюз8149198 0.0 1014696
19:00−1зюз9158798 0.0 1012887
22:00−1юз9178699 0.1 1011787
5 марта, пт
пт501:00−2юз9198568 0.0 1010526
04:00−2юз9198638 0.0 1010493
07:00−2юз9178889 0.0 1010513
10:00−1юз9159194 0.0 1010508
13:000юз81499100 0.1 1011628
16:00+1юз71299100 0.4 1012512
19:00+1зюз61199100 0.3 1012479
22:00+1зюз51098100 0.4 1013333